Dewpoint
61 52 53 53 45 45 38 37 23 32 30 25 24 28 29 31 34 34 36 35 38 42 43 51 49 47 42 43 46 50 54 48 47 46 42 52 63 66 67 67 67 66 66 66 65 65 65 69 71 70 69 70 69 70 70 71 71 70 70 70 69 68 67 66 67 66 66 66 65 65 65 66 66 66 65 65 65 65 65 65 65 65 65 65 64 65 65 67 67 67 68 68 68 68 68 68 68
55 50 50 51 48 37 34 38 31 29 28 24 24 24 25 26 33 34 35 36 39 48 52 55 55 55 55 56 56 56 54 58 50 55 61 63 66 67 67 68 67 65 65 64 64 64 64 67 70 70 69 69 70 70 70 70 70 70 70 69 68 67 66 67 68 68 67 66 65 65 66 66 64 62 63 65 64 64 64 64 65 65 65 65 66 65 64 67 67 67 67 67 68 68 68 68 68
54 49 48 46 41 36 37 34 26 26 24 21 24 23 27 28 33 34 35 35 43 52 53 53 52 51 52 51 47 48 49 60 60 61 62 65 63 65 67 67 66 65 65 64 64 64 64 66 69 70 70 69 69 70 70 70 70 70 69 69 68 67 66 65 66 66 63 62 65 66 64 63 66 65 65 65 64 64 64 65 64 64 65 65 64 64 64 66 67 67 67 67 67 67 67 67 68
51 52 45 43 39 39 30 32 30 26 22 24 22 24 27 30 32 34 34 34 51 51 45 47 51 52 51 51 51 56 57 58 62 62 62 64 64 67 67 67 66 65 65 64 64 64 65 67 68 71 70 70 70 70 70 70 69 69 68 68 67 67 66 66 66 64 63 64 63 62 62 63 65 64 64 64 65 65 64 64 63 64 65 64 63 64 63 66 67 67 67 66 67 67 67 67 67
48 52 45 40 33 30 33 29 28 26 22 25 21 23 30 32 32 33 38 41 48 39 38 45 50 52 53 53 52 50 53 60 61 62 63 65 67 67 67 66 65 65 64 64 64 64 65 68 69 70 70 70 70 70 70 70 69 68 68 67 67 66 66 66 65 64 65 65 65 65 65 65 65 64 63 65 66 66 65 65 66 65 65 64 63 63 63 65 66 66 66 67 67 67 67 66 66
47 46 46 37 29 37 29 23 26 24 26 25 20 23 30 31 33 37 42 38 39 36 37 46 48 50 53 54 54 55 59 57 61 62 63 65 67 67 66 66 65 65 64 64 63 64 64 68 70 70 69 69 70 70 70 69 68 68 67 66 66 65 65 64 64 61 63 65 65 65 64 64 65 63 62 63 62 62 63 63 63 61 62 62 63 63 63 63 65 65 65 66 67 66 66 66 66
45 36 36 31 33 36 29 25 24 26 27 24 24 28 32 31 37 39 37 35 35 47 42 50 51 51 51 52 55 58 58 59 61 61 64 67 67 66 66 65 65 64 64 63 64 64 65 68 70 70 70 70 70 70 69 68 68 67 66 65 65 64 64 64 63 62 63 64 64 64 65 67 67 65 63 63 64 64 64 64 64 64 63 64 63 62 63 64 65 66 66 66 66 66 66 66 66
47 34 37 26 29 31 27 28 28 29 26 24 26 32 32 35 37 36 35 36 36 40 51 52 47 48 49 53 51 55 58 59 61 64 67 67 67 66 66 65 65 64 64 63 63 65 68 68 70 70 70 69 69 69 69 68 67 66 65 65 65 64 63 64 63 63 63 62 62 63 67 67 67 67 64 63 63 63 64 64 64 64 65 65 65 64 64 65 66 66 66 66 66 65 65 66 66
39 36 40 30 24 30 27 24 25 28 28 28 25 34 42 37 35 34 34 34 39 44 49 49 47 44 46 52 50 54 57 62 65 66 67 67 66 66 65 64 65 64 64 64 63 64 64 68 69 70 70 70 69 69 68 67 66 65 64 64 65 64 63 63 63 63 62 62 63 67 67 67 67 68 66 65 64 64 64 64 64 63 64 64 64 64 63 64 64 66 66 66 66 65 65 65 66
37 34 29 29 30 22 22 25 20 22 24 23 30 34 36 35 33 34 33 35 38 48 48 42 46 42 49 53 52 55 57 63 66 66 66 66 66 66 65 64 64 65 64 63 63 64 65 68 67 68 69 69 69 69 67 65 65 64 64 64 64 64 63 63 63 63 62 62 63 67 68 67 68 68 68 66 64 63 63 63 64 63 63 64 64 64 64 64 65 65 66 66 65 64 65 65 65
32 35 40 30 27 21 23 23 27 29 24 25 31 31 36 34 31 29 32 34 38 46 42 50 51 51 53 53 53 55 58 64 65 64 66 66 66 65 64 64 65 65 65 64 63 63 64 65 67 67 68 68 68 68 67 65 64 63 63 63 63 63 64 64 63 62 62 63 63 67 68 67 66 66 67 67 65 63 63 62 62 62 63 64 64 64 64 65 65 66 66 66 65 64 64 64 64
28 32 35 28 24 22 25 22 27 27 29 28 33 32 33 31 31 30 33 36 38 43 44 49 48 50 52 54 53 55 61 63 64 65 66 66 66 65 65 65 65 66 65 65 65 63 63 63 65 67 66 66 67 67 67 66 65 64 64 63 65 64 64 64 64 64 62 62 64 65 66 66 66 65 65 66 65 64 64 63 63 63 63 63 64 64 65 65 65 65 66 66 65 64 64 64 63
32 39 29 25 23 24 27 24 25 35 26 26 32 30 31 29 29 30 32 37 40 42 41 46 53 51 49 52 53 57 61 63 63 65 66 66 66 65 65 65 65 66 66 65 65 64 62 63 64 64 64 64 64 65 65 66 66 66 66 65 66 66 66 66 67 68 68 64 67 68 68 68 67 68 66 66 66 65 63 63 63 63 63 63 64 64 64 65 65 65 65 65 65 64 64 64 64
37 35 30 29 29 28 26 26 25 21 21 28 26 28 30 29 27 30 35 36 40 39 40 44 53 54 52 54 57 58 61 62 64 65 66 66 66 65 65 64 65 65 66 66 65 65 63 63 64 64 64 64 63 64 63 65 67 67 67 67 67 67 67 67 68 68 68 68 68 68 68 67 68 68 67 67 67 67 66 64 64 63 63 64 64 64 64 64 65 65 65 65 65 64 64 64 64
36 41 35 31 28 26 30 21 23 23 24 25 26 29 28 28 30 32 34 34 38 39 48 52 53 43 42 52 51 58 60 61 64 65 66 66 65 64 64 64 64 65 66 66 66 65 64 64 64 64 64 63 63 62 61 64 65 66 67 67 67 67 68 67 67 66 67 67 66 65 65 65 65 66 66 67 66 66 66 66 65 65 64 64 64 64 64 65 65 65 65 65 65 64 64 63 64
41 36 33 29 27 26 27 25 26 23 22 24 24 27 29 24 31 31 32 35 35 46 49 51 45 41 44 48 49 57 60 61 63 65 65 65 64 64 63 63 63 64 65 66 66 65 65 64 64 63 63 63 64 63 62 63 64 64 65 66 66 66 66 66 65 64 63 63 63 62 62 61 61 61 62 63 64 65 64 63 65 65 64 63 63 64 64 64 64 65 65 65 65 65 64 63 63
42 39 27 28 23 25 27 26 24 22 25 25 24 27 31 26 24 28 33 41 42 47 49 51 48 53 51 50 52 59 60 61 63 65 64 64 63 62 62 61 62 62 64 65 65 65 65 65 64 63 63 64 64 63 63 63 64 63 63 63 64 64 64 64 63 60 59 59 59 58 59 58 58 59 59 59 60 60 61 62 64 65 64 64 63 63 64 63 63 64 65 65 65 63 60 59 58
37 32 31 27 28 26 30 26 24 27 20 19 23 24 30 25 24 28 41 44 46 48 48 49 52 52 52 53 56 60 60 62 64 64 63 63 63 61 60 60 60 60 62 63 64 65 65 65 64 64 63 63 63 63 63 63 64 63 62 63 62 62 61 60 58 58 61 57 58 58 57 58 57 56 58 62 59 59 59 60 62 65 64 65 65 63 63 64 64 64 64 65 65 62 57 54 54
36 31 31 28 30 29 31 27 25 21 22 20 23 24 25 26 27 29 33 37 45 46 46 49 51 52 55 56 58 59 60 62 63 64 63 62 62 61 60 59 59 60 60 62 62 64 65 65 65 64 64 64 63 63 62 62 63 62 62 63 63 60 61 58 58 57 56 55 55 56 56 56 56 56 57 58 58 57 59 59 62 63 64 63 64 65 64 64 64 65 64 64 63 59 55 54 54
37 30 27 30 32 30 30 26 24 22 22 22 23 24 23 23 29 29 31 36 43 45 44 45 49 50 53 55 58 59 60 62 63 63 63 62 62 62 60 59 59 59 59 60 60 63 64 64 64 64 64 64 63 63 62 62 62 61 62 62 63 62 60 58 57 56 55 55 55 55 57 56 56 56 60 61 59 58 58 58 59 59 60 59 60 59 60 61 62 61 61 60 57 55 55 54 54
37 31 29 30 29 27 25 30 25 22 23 22 24 23 22 22 28 31 32 39 41 43 43 44 47 50 54 57 58 58 60 61 63 63 63 63 63 62 61 60 58 58 58 60 61 62 63 64 64 64 64 64 63 63 62 62 62 61 61 62 61 61 60 58 58 57 55 55 55 55 55 57 57 57 57 56 56 57 58 58 58 57 56 57 57 57 57 58 57 56 54 53 52 53 55 54 54
33 30 34 32 27 25 24 23 24 22 23 23 23 23 22 23 25 29 36 30 30 37 40 44 47 52 55 57 58 58 59 61 62 62 63 63 63 62 62 61 59 58 59 59 60 62 62 63 63 64 64 64 64 63 63 62 62 60 60 61 61 61 60 59 59 59 57 56 55 56 55 56 57 57 56 55 55 56 57 57 57 56 56 56 57 57 57 58 57 55 53 54 54 52 54 53 54
38 34 26 27 25 23 23 22 23 24 23 23 23 24 23 23 23 29 35 28 27 25 35 40 49 54 57 58 58 58 59 60 61 62 62 62 63 63 63 62 61 59 60 59 60 61 62 62 63 64 63 64 64 64 64 63 62 60 60 60 61 61 60 60 59 59 59 57 56 56 57 55 57 57 56 55 54 55 56 56 57 56 57 56 58 57 57 57 56 55 54 54 53 53 53 53 53
34 32 25 24 24 23 24 23 23 22 23 22 23 23 22 22 22 25 33 32 25 24 27 39 51 55 57 57 58 58 58 60 61 62 63 63 63 63 63 63 62 60 59 59 60 61 62 62 63 63 63 63 64 64 63 63 63 61 60 59 60 60 60 60 59 59 58 58 58 57 57 56 56 57 57 56 55 54 55 55 55 57 56 56 58 57 57 56 55 55 54 53 52 51 51 51 51
28 25 23 22 23 23 23 22 21 21 22 23 24 22 22 22 22 29 29 32 32 28 50 52 55 56 57 57 57 58 58 59 60 61 62 63 63 63 64 64 63 63 61 60 60 61 61 62 62 62 62 63 64 64 63 63 63 63 61 60 60 59 59 60 59 59 58 58 58 57 56 57 56 55 56 56 55 55 54 54 54 55 54 55 56 57 56 56 55 54 53 53 51 52 50 52 50
28 27 26 24 23 23 21 22 21 20 22 22 21 21 21 20 22 22 23 26 30 46 52 54 55 56 57 57 57 57 58 58 59 59 61 62 63 63 63 63 64 63 63 62 60 61 61 61 61 62 61 62 63 63 62 62 62 62 62 62 61 59 59 59 58 58 58 58 57 57 57 57 57 57 57 55 55 55 55 54 54 54 54 54 54 55 54 54 55 53 53 53 53 54 53 52 51
35 39 30 24 23 21 23 21 20 21 22 21 21 21 20 20 20 19 20 22 48 51 51 52 55 55 56 57 57 57 58 58 58 59 59 60 61 62 62 63 63 63 64 63 62 62 61 62 61 62 61 60 62 63 62 62 62 62 62 62 62 60 59 58 58 58 57 58 58 57 57 57 57 56 56 55 55 55 54 54 55 54 54 54 53 55 53 56 55 56 56 56 55 55 55 53 52
37 33 28 29 25 21 21 22 20 21 20 20 21 20 20 19 20 19 19 29 47 49 53 53 53 55 56 56 57 57 57 58 58 57 59 59 60 61 62 62 62 63 63 63 63 63 62 63 62 62 62 61 61 62 61 60 60 61 61 61 61 60 59 59 58 58 57 58 57 57 57 57 56 56 56 55 56 55 54 54 54 54 56 54 54 55 56 56 56 56 55 55 55 54 55 54 53
39 32 32 32 29 22 21 20 20 21 19 20 20 19 18 19 18 20 17 38 44 49 52 53 53 54 55 56 56 56 57 57 57 58 59 60 60 61 61 62 62 62 62 63 64 63 63 63 63 62 62 61 61 62 62 61 60 60 60 60 60 60 59 59 59 58 58 58 58 58 58 57 56 57 55 56 55 54 54 53 54 54 55 54 54 55 56 55 55 55 55 55 54 54 54 55 54
40 37 34 34 28 27 21 21 22 20 19 20 20 17 19 17 18 20 20 43 45 47 50 53 54 53 54 55 56 56 56 55 56 57 58 59 59 60 60 60 61 61 61 61 61 62 62 63 63 63 62 62 61 62 62 62 60 60 60 60 59 60 59 59 59 59 58 58 58 58 58 58 57 57 56 55 55 54 54 55 56 56 56 55 54 53 54 55 55 55 55 54 54 54 54 54 54
42 41 37 35 32 33 22 21 21 18 22 19 17 19 17 18 18 20 32 43 44 44 48 52 52 52 53 54 55 56 56 57 57 57 58 58 58 59 59 59 60 60 60 60 61 61 61 62 63 63 62 62 61 62 62 62 61 60 60 60 60 60 60 59 59 59 58 58 58 58 58 58 57 57 56 57 57 57 57 57 57 57 56 55 55 55 55 55 54 54 54 54 54 53 53 53 53
38 42 39 32 36 39 25 29 20 18 19 18 17 19 17 17 17 17 23 43 42 39 46 50 51 52 52 54 55 55 56 56 57 57 57 57 57 58 58 59 59 59 60 60 60 60 61 61 62 63 62 62 62 62 62 62 61 61 61 60 61 60 60 60 59 59 59 58 58 58 58 58 58 58 58 58 58 58 58 57 58 57 56 56 56 56 55 55 54 54 54 54 53 53 53 54 52
40 38 29 35 32 31 20 20 23 24 19 20 16 17 14 13 15 14 15 44 43 40 43 48 50 51 52 53 54 55 55 55 55 56 57 57 57 58 58 58 59 59 60 60 60 60 60 60 60 62 62 62 62 62 62 61 61 61 61 61 61 60 60 60 60 59 58 58 58 58 58 59 58 59 59 59 58 58 58 58 57 56 56 56 56 55 55 56 55 55 55 54 54 54 54 52 52
37 34 32 31 31 32 24 20 22 26 19 17 18 15 14 11 11 13 19 41 43 40 38 45 49 51 52 52 53 54 54 55 55 56 57 57 58 58 58 57 58 58 59 59 59 60 60 60 60 61 62 62 63 62 62 62 62 61 61 61 60 61 60 60 60 59 60 60 59 59 59 59 59 59 59 59 59 58 58 58 57 56 55 56 55 54 55 55 55 54 54 55 54 52 51 52 53
36 32 29 29 25 21 22 19 18 20 19 17 17 16 16 16 16 15 17 24 41 40 37 39 46 50 51 51 52 53 54 54 55 56 57 57 57 58 58 58 58 58 58 58 59 59 59 60 60 59 61 62 62 62 61 61 61 61 60 60 60 61 61 60 61 61 61 61 60 60 59 59 59 59 60 60 59 59 59 58 58 58 58 57 56 55 54 53 53 52 53 54 51 51 53 54 54
38 35 31 27 26 27 21 19 19 19 17 16 17 16 16 16 16 16 17 21 33 39 33 31 40 46 49 50 51 52 53 53 55 55 55 56 57 58 58 58 58 58 58 58 58 58 59 59 59 59 60 61 61 62 61 61 61 60 61 59 60 61 61 60 62 62 62 62 61 61 60 60 59 60 60 60 60 60 60 60 60 59 57 57 57 57 55 54 54 53 53 51 52 53 53 54 54
33 35 32 29 25 23 21 20 20 22 18 16 16 17 16 16 16 16 17 20 24 26 28 31 32 39 44 46 48 50 51 52 53 53 53 54 56 57 58 58 58 57 57 58 58 58 58 59 59 59 59 60 61 61 61 62 61 61 61 61 61 61 61 61 62 63 63 63 62 62 61 61 61 60 60 61 61 60 60 59 58 58 58 57 57 57 57 55 55 56 55 53 52 54 55 54 51
29 30 30 31 26 24 25 21 21 21 19 18 17 16 21 17 16 16 19 19 19 22 25 27 29 30 36 41 42 44 47 48 45 46 49 52 54 55 57 57 56 57 57 57 58 58 58 58 59 59 59 59 61 62 62 61 62 62 62 62 60 59 59 60 61 61 63 63 64 63 63 61 61 61 59 60 60 59 59 59 59 59 58 57 56 56 57 54 55 56 55 54 52 54 53 51 51
37 36 35 29 28 25 22 22 22 21 19 17 17 16 16 16 16 16 18 18 18 20 22 23 26 26 25 30 36 39 39 40 40 43 46 50 52 54 56 57 58 58 58 57 58 58 58 58 59 59 59 59 60 61 61 61 61 60 61 59 61 57 56 60 61 59 60 62 63 64 64 63 62 61 60 59 60 60 60 59 59 58 58 58 57 55 54 55 56 56 55 55 56 54 55 54 54
38 35 34 30 26 24 27 23 22 19 21 17 19 15 16 16 16 16 16 17 17 20 20 22 23 23 22 23 27 33 35 37 37 37 40 46 50 53 55 56 57 58 58 57 58 58 58 58 59 59 59 59 60 60 59 61 61 60 59 57 59 60 58 55 57 57 58 60 61 62 62 63 63 63 62 61 60 60 60 59 58 58 58 58 56 56 55 56 57 56 55 55 56 55 55 53 53
38 36 35 33 30 24 21 18 20 19 18 21 16 19 17 16 15 16 16 16 17 17 21 21 23 25 24 26 25 24 26 31 34 35 35 41 47 50 53 55 57 57 57 58 58 58 58 58 59 59 59 59 60 59 59 60 58 57 56 55 56 56 56 56 57 57 58 59 59 60 62 62 62 62 63 62 61 61 61 60 60 60 58 57 56 57 59 59 58 57 57 56 56 55 55 54 53
39 37 35 33 27 22 19 20 21 21 21 22 20 17 16 18 17 16 16 16 15 15 16 16 18 21 23 22 22 23 27 26 27 30 32 36 43 48 51 53 55 56 57 58 58 58 59 59 59 59 59 59 60 59 59 59 59 60 59 59 59 59 59 57 58 59 58 58 60 59 59 61 62 61 61 61 60 59 60 60 60 60 59 58 58 59 59 58 58 57 57 57 56 56 55 55 54
37 37 36 31 28 26 24 21 23 22 22 23 18 17 16 21 18 17 16 16 15 15 17 16 16 17 19 22 23 22 22 22 25 27 30 34 39 45 49 52 54 55 57 57 58 58 58 59 59 59 59 59 59 59 59 58 59 59 60 60 60 60 60 58 56 56 59 57 55 57 60 59 60 61 61 61 60 60 61 61 60 60 60 59 57 58 58 58 57 57 55 56 56 55 55 54 53
36 33 34 31 29 28 28 24 25 23 28 24 20 19 16 17 16 18 16 14 15 15 15 16 16 16 17 18 20 22 22 22 23 24 26 31 35 40 45 51 53 55 56 56 57 57 58 58 58 58 59 58 59 59 59 59 60 59 59 59 59 59 59 59 55 56 53 52 55 56 56 58 60 60 60 60 61 60 60 59 59 58 58 58 57 58 58 57 57 56 55 56 55 54 54 54 53
34 32 34 31 30 26 27 26 25 26 23 21 22 23 14 15 16 17 12 12 13 14 14 15 15 16 16 18 18 19 21 22 22 24 24 27 32 36 41 47 52 53 54 55 56 57 57 58 57 57 58 58 58 58 58 59 59 60 59 59 58 57 58 57 53 51 54 53 55 53 56 57 59 59 59 59 59 59 58 58 58 58 58 58 56 57 57 57 56 56 55 55 55 54 54 53 53
34 31 32 30 31 31 27 26 23 25 22 21 22 20 16 16 22 16 14 11 12 13 14 14 15 15 16 17 18 19 19 21 23 23 23 25 28 32 37 42 45 51 52 52 53 54 55 56 56 56 57 57 57 58 58 58 59 58 59 58 58 57 54 51 53 53 53 53 55 54 55 56 57 57 57 56 56 56 56 55 56 56 56 56 54 55 55 54 54 54 54 54 54 53 53 52 52
33 32 35 36 35 32 31 28 24 22 20 21 23 20 15 15 18 15 16 16 12 10 9 10 12 16 16 17 17 21 20 21 23 24 24 26 29 32 37 41 45 46 48 49 51 53 53 55 56 56 57 57 56 57 58 58 58 58 59 58 58 57 55 54 53 52 53 54 54 53 55 54 54 54 55 54 54 54 54 54 54 53 53 51 52 52 53 52 50 51 52 52 52 52 52 51 51
36 34 34 36 33 33 32 28 25 22 21 22 24 21 16 15 16 18 15 13 11 12 10 8 9 9 13 15 16 18 18 21 23 25 26 30 35 38 37 40 43 46 45 47 49 50 52 54 55 55 55 55 56 56 57 57 58 58 58 58 58 57 56 55 56 55 54 55 54 54 52 53 52 52 53 52 52 52 52 52 52 52 51 51 50 50 50 51 51 52 51 51 51 51 51 50 50
36 36 35 31 26 27 24 23 21 21 21 17 16 16 14 15 16 13 12 11 12 11 12 11 9 8 10 12 15 18 22 23 24 25 27 32 33 36 38 40 41 43 46 46 48 49 51 52 54 55 55 54 55 55 57 57 57 57 58 57 57 57 56 56 56 55 54 55 55 53 53 52 51 51 50 51 50 50 51 50 50 49 48 48 47 48 48 49 49 50 49 49 49 49 49 49 48
35 33 31 29 23 22 21 22 17 18 22 17 14 16 14 17 14 16 16 15 13 11 10 13 13 12 13 15 18 22 27 28 27 28 30 32 34 37 39 40 42 44 44 46 46 47 48 51 52 54 55 53 54 55 56 56 56 57 57 57 57 56 56 56 57 57 55 56 55 54 53 52 51 51 50 49 48 48 48 46 46 46 45 44 44 44 44 45 46 47 46 45 45 46 46 46 46
35 34 32 28 25 21 20 19 20 20 22 15 16 14 16 16 17 19 17 16 16 16 13 14 16 16 16 18 25 29 32 33 35 36 36 36 38 39 40 40 41 42 42 43 43 44 46 49 51 53 54 52 53 55 55 56 56 56 56 57 57 56 57 57 57 57 56 55 54 54 53 51 51 49 49 45 46 47 46 45 44 43 42 43 43 44 45 45 45 46 46 45 45 45 45 44 44
34 33 31 28 26 26 21 20 17 17 14 9 10 17 19 16 18 16 16 17 16 17 19 24 23 26 31 33 32 32 34 36 37 38 38 38 38 38 38 39 40 41 41 41 42 43 45 48 49 51 53 52 53 53 55 56 55 55 55 56 56 55 55 56 54 53 53 54 53 52 50 50 49 47 45 45 45 45 44 42 41 41 41 42 43 44 44 44 44 44 44 43 42 42 42 41 41
32 29 28 28 30 26 22 20 15 14 16 13 11 13 16 15 14 14 15 13 13 14 16 20 23 25 32 32 32 33 36 37 37 38 38 38 37 37 39 40 41 42 42 42 43 42 45 46 48 50 52 51 52 53 55 55 54 54 54 55 55 55 55 54 53 52 51 51 50 49 49 47 46 46 44 43 43 41 41 40 40 39 39 40 40 41 42 42 42 41 41 40 39 39 39 39 40
31 28 30 28 29 28 21 19 18 12 15 15 12 13 13 10 16 17 11 11 11 11 12 14 19 27 31 31 31 34 36 37 37 37 36 37 38 38 38 39 42 42 43 44 44 44 46 47 49 50 50 50 51 53 54 54 53 53 52 52 53 54 54 53 52 50 49 49 48 46 46 45 45 44 43 41 40 39 39 38 39 38 37 37 37 38 38 39 39 39 39 38 39 39 38 38 38
31 31 31 26 23 23 21 19 15 10 11 12 9 13 10 11 14 11 9 9 9 9 11 11 13 18 27 29 31 36 35 35 36 37 38 37 36 37 37 39 41 44 45 46 46 46 47 48 50 51 51 51 51 52 52 52 52 52 52 51 52 51 51 51 50 49 49 48 47 46 45 44 41 41 40 39 39 37 36 35 36 35 36 36 36 36 36 37 37 37 37 36 36 36 36 36 37
32 29 26 30 25 24 22 22 19 18 14 7 15 8 10 15 13 11 6 7 10 9 9 10 11 13 18 26 33 36 37 37 37 36 35 35 35 35 36 38 41 44 46 46 47 48 48 49 49 50 50 50 50 50 50 51 50 50 49 49 49 50 49 49 48 48 48 47 46 45 43 42 41 39 39 38 37 35 35 35 34 35 35 34 33 33 34 34 34 34 33 32 32 34 33 32 30
27 26 25 24 26 28 26 21 22 18 10 8 7 6 14 16 16 11 9 7 7 7 10 14 15 18 24 30 33 36 37 37 36 36 36 35 35 36 36 36 38 41 44 46 47 47 48 48 49 49 49 49 49 49 49 49 48 47 47 47 47 47 47 47 47 47 46 45 44 43 42 40 38 37 36 35 35 35 35 34 34 34 34 34 33 31 32 33 33 32 32 31 30 30 29 28 28
29 27 25 24 24 23 21 21 15 15 13 12 3 11 16 19 17 12 9 8 7 14 14 14 15 19 25 30 34 35 37 37 37 36 36 36 35 36 35 33 35 40 44 45 46 47 47 47 48 48 49 49 48 48 48 47 48 47 47 46 46 46 45 45 45 44 43 42 41 40 38 36 35 33 35 35 34 34 33 34 34 34 34 33 32 32 31 32 32 31 30 30 30 30 29 29 29